TISAT 1

导读

TISAT 1是中国于2010年7月12日08:00发射的一颗卫星,作为中国航天发射序列中的一员,它承载着技术验证或相关空间探测任务,是中国在小卫星技术探索领域的一次实践尝试。该卫星进入预定轨道后,开展相关空间科学试验,为中国后续微小卫星技术发展、空间环境探测积累了宝贵的在轨数据和工程经验,推动了中国低成本卫星技术的研发进程。

Basic Information
目录编号:
36799
目录名称:
TISAT 1
国际标识:
2010-035E
轨道中心:
EARTH
卫星名称:
TISAT 1
卫星全名:
--
卫星状态:
在轨 (已飞行5898 天)
发射日期:
2010-07-12 UTC
国别 :
瑞士 (CH)
星等 :
--
Orbit Information
数据来源 国际轨道数据
星历时间: 2026-09-02T03:23:58+0800
2天前
查看轨道信息
半长轴: 6840.6km
偏心率: 0.0002327
轨道倾角: 98.076°
近地点辐角 38.657°
升交点赤经 198.343°
平近点角 321.484°
近地点: 460.871km
远地点: 464.055km
周期: 93.843分钟
每日圈数: 15.344811
Detailed Information
使用方式:
暂无
2D Orbit Map
3D Orbit Map
Orbit Altitude Analysis Chart
Orbit Inclination Analysis Chart
Orbit Comprehensive Analysis Chart
View Comprehensive Chart
Conjunction Data List
Event ID Objects TCA Miss Dist (km) Collision Risk Probability Collision Risk Index (CRI) Action
CDM_260901-103303-679905-285824
TISAT 1 (36799)
2026-09-01T
10:33:27+0000
0.832 km
远距离
4.477703E-5 中风险 0.68
CDM_260904-160803-679906-448321
TISAT 1 (36799)
2026-09-04T
16:08:31+0000
1.057 km
极远距离
2.225831E-5 中风险 0.62
CDM_260903-071603-679905-230621
TISAT 1 (36799)
2026-09-03T
07:16:36+0000
1.063 km
极远距离
2.18178E-5 中风险 0.62
CDM_260904-112103-679906-583921
TISAT 1 (36799)
2026-09-04T
11:21:15+0000
1.223 km
极远距离
1.281049E-5 中风险 0.57
CDM_260903-090903-679906-619021
TISAT 1 (36799)
2026-09-03T
09:09:58+0000
1.586 km
极远距离
4.051608E-6 低风险 0.47
CDM_260904-033203-679906-445821
TISAT 1 (36799)
2026-09-04T
03:32:08+0000
1.913 km
极远距离
3.090459E-6 低风险 0.45
CDM_260904-094703-679906-583921
TISAT 1 (36799)
2026-09-04T
09:47:23+0000
2.069 km
极远距离
2.512071E-6 低风险 0.43
CDM_260902-100603-679906-417421
TISAT 1 (36799)
2026-09-02T
10:06:04+0000
2.125 km
极远距离
2.423042E-6 低风险 0.43
CDM_260904-052703-679906-982722
TISAT 1 (36799)
2026-09-04T
05:27:44+0000
2.163 km
极远距离
2.328417E-6 低风险 0.42
CDM_260901-095703-679905-301124
TISAT 1 (36799)
2026-09-01T
09:57:27+0000
2.195 km
极远距离
2.283447E-6 低风险 0.42